SL-14 DEB, 45312

Orbit data source: Space-Track

SL-14 DEB, 45312 is space debris in LEO originally from a launch on Thu, 15 Aug 1991 UTC launched from the Plesetsk Missile And Space Complex (PKMTR). Debris objects in space refer to the collection of defunct objects orbiting the Earth. Examples of debris include non-operational satellites, rocket bodies, and fragments generated from explosions, collisions, or faulty payload assembly.

Loading next visibility...
Identifier
45312, 1991-056BA
Orbit
LEO
Country
Flag of CISCIS
Related business
Manufacturer
Unknown
Mission
Spacecraft
Bus & Motor
Unknown
Mass
Unknown
Launch date (UTC)
1991-08-15 (35 years ago)
Launch vehicle
Unknown
Launch site
Plesetsk Missile And Space Complex (PKMTR)
Object type
Payload
Rocket body
Debris
Shape & HBR
Unknown shape, 0.1 m
Radar Cross Section
Medium (>0.1 m² and <1 m²)

Expand to show TLE details & history
Last TLE update: 2 days ago

TLE from 2 days ago
0 SL-14 DEB
1 45312U 91056BA  26171.27527775  .00000665  00000-0  16093-2 0  9993
2 45312  82.5172 124.1088 0015933  85.8441 274.4504 13.20503565304965
Epoch: 2026-06-20T06:36Z
TLE epoch observation values (Epoch: 2026-06-20T06:36:23.997Z)
Latitude
-0.00002°
Longitude
116.51657°
Altitude
1,184.693 km
Speed
7.262 km/s
True Right ascension
08h 16m 26s
True Declination
0° 00' 00"
Sunlit
Object was in daylight at epoch
Visualization orbit readout
Latitude
Unknown
Longitude
Unknown
Altitude
Unknown
Speed
Unknown
Apparent Right ascension
Unknown
Apparent Declination
Unknown
Sunlit
N/A
Visualization observer readout
Local Sidereal Time
21:40:33
Azimuth
Unknown
Elevation
Unknown
Doppler factor
Unknown
Orbital elements
Apogee altitude
1,192.081 km
Perigee altitude
1,167.996 km
Semi-major axis
7,558.175 km
Eccentricity
0.00159
Inclination
82.5172°
RAAN
124.1088°
Arg. of periapsis
85.8441°
True anomaly
274.26834°
Mean anomaly
274.4504°
Eccentric anomaly
274.35937°
Mean motion
3.30307 °/min
Orbital period
108.99 mins
BSTAR
0.0016093
Loading maneuver chart data...
Computing Atmospheric mass density...
Loading historical data...
Loading historical data...
Loading historical data...
Loading historical data...
Loading historical data...
Loading historical data...
Loading historical data...

Documentation

Showing up to 5 results
|